| time (UTC) | temp C | wind direction | speed KPH | gust KPH | rain 1hr cm | rain 24hr cm | rain mn cm | humidity % | barometer mb |
| 20260506071917 | 10 | 136 | 4.8 | 8.0 | 0.00 | 0.00 | 0.00 | 73 | 1006.8 |
| 20260506070517 | 9 | 135 | 4.8 | 9.7 | 0.00 | 0.00 | 0.00 | 75 | 1006.6 |
| 20260506070417 | 9 | 138 | 4.8 | 9.7 | 0.00 | 0.00 | 0.00 | 76 | 1006.6 |
| 20260506061918 | 9 | 118 | 4.8 | 9.7 | 0.00 | 0.00 | 0.00 | 76 | 1006.4 |
| 20260506060517 | 9 | 128 | 4.8 | 8.0 | 0.00 | 0.00 | 0.00 | 78 | 1006.2 |
| 20260506060418 | 9 | 130 | 4.8 | 8.0 | 0.00 | 0.00 | 0.00 | 77 | 1006.0 |
| 20260506050517 | 8 | 151 | 8.0 | 8.0 | 0.00 | 0.00 | 0.00 | 82 | 1006.1 |
| 20260506050418 | 8 | 150 | 8.0 | 8.0 | 0.00 | 0.00 | 0.00 | 82 | 1006.0 |
| 20260506044918 | 8 | 149 | 6.4 | 8.0 | 0.00 | 0.00 | 0.00 | 81 | 1005.9 |
| 20260506043517 | 9 | 153 | 6.4 | 8.0 | 0.00 | 0.00 | 0.00 | 79 | 1006.0 |
| 20260506043418 | 9 | 152 | 6.4 | 8.0 | 0.00 | 0.00 | 0.00 | 79 | 1005.9 |
| 20260506041918 | 9 | 146 | 6.4 | 8.0 | 0.00 | 0.00 | 0.00 | 79 | 1005.8 |
| 20260506040517 | 9 | 151 | 6.4 | 9.7 | 0.00 | 0.00 | 0.00 | 77 | 1005.8 |
| 20260506040418 | 9 | 151 | 6.4 | 9.7 | 0.00 | 0.00 | 0.00 | 77 | 1006.0 |
| 20260506034918 | 9 | 147 | 6.4 | 9.7 | 0.00 | 0.00 | 0.00 | 77 | 1006.0 |
| 20260506033517 | 10 | 146 | 6.4 | 9.7 | 0.00 | 0.00 | 0.00 | 77 | 1005.9 |
| 20260506033418 | 10 | 148 | 6.4 | 9.7 | 0.00 | 0.00 | 0.00 | 77 | 1005.9 |
| 20260506031918 | 10 | 147 | 6.4 | 9.7 | 0.00 | 0.00 | 0.00 | 76 | 1005.9 |
| 20260506030517 | 10 | 146 | 6.4 | 9.7 | 0.00 | 0.00 | 0.00 | 75 | 1005.9 |
| 20260506030418 | 10 | 147 | 6.4 | 9.7 | 0.00 | 0.00 | 0.00 | 75 | 1005.9 |
| 20260506024918 | 10 | 148 | 6.4 | 9.7 | 0.00 | 0.00 | 0.00 | 74 | 1005.7 |
| 20260506023517 | 10 | 139 | 6.4 | 11.3 | 0.00 | 0.00 | 0.00 | 73 | 1006.0 |
| 20260506023418 | 10 | 140 | 6.4 | 11.3 | 0.00 | 0.00 | 0.00 | 73 | 1006.0 |
| 20260506021918 | 10 | 141 | 6.4 | 11.3 | 0.00 | 0.00 | 0.00 | 74 | 1006.0 |
| 20260506020517 | 10 | 149 | 6.4 | 9.7 | 0.00 | 0.00 | 0.00 | 77 | 1005.9 |
| 20260506020418 | 10 | 150 | 6.4 | 9.7 | 0.00 | 0.00 | 0.00 | 77 | 1006.0 |
| 20260506014918 | 10 | 135 | 6.4 | 9.7 | 0.00 | 0.00 | 0.00 | 76 | 1006.0 |
| 20260506013517 | 11 | 145 | 6.4 | 8.0 | 0.00 | 0.00 | 0.00 | 78 | 1006.0 |
| 20260506013418 | 11 | 145 | 6.4 | 8.0 | 0.00 | 0.00 | 0.00 | 78 | 1006.0 |
| 20260506011918 | 11 | 143 | 6.4 | 9.7 | 0.00 | 0.00 | 0.00 | 78 | 1006.0 |
| 20260506010517 | 11 | 146 | 6.4 | 9.7 | 0.00 | 0.00 | 0.00 | 77 | 1006.1 |
| 20260506010418 | 11 | 147 | 6.4 | 8.0 | 0.00 | 0.00 | 0.00 | 77 | 1006.1 |
| 20260506004918 | 11 | 147 | 6.4 | 9.7 | 0.00 | 0.00 | 0.00 | 76 | 1006.2 |
| 20260506003517 | 11 | 145 | 6.4 | 9.7 | 0.00 | 0.00 | 0.00 | 75 | 1005.9 |
| 20260506003418 | 11 | 147 | 6.4 | 9.7 | 0.00 | 0.00 | 0.00 | 75 | 1005.9 |
| 20260506001918 | 11 | 143 | 6.4 | 8.0 | 0.00 | 0.00 | 0.00 | 75 | 1006.2 |
| 20260506000517 | 11 | 144 | 6.4 | 9.7 | 0.00 | 0.00 | 0.00 | 75 | 1006.3 |
| 20260506000418 | 11 | 145 | 6.4 | 9.7 | 0.00 | 0.00 | 0.00 | 75 | 1006.2 |
| 20260505234918 | 11 | 148 | 6.4 | 9.7 | 0.00 | 0.00 | 0.00 | 74 | 1006.0 |
| 20260505233517 | 11 | 145 | 6.4 | 9.7 | 0.00 | 0.00 | 0.00 | 71 | 1006.0 |
| 20260505233418 | 11 | 144 | 6.4 | 9.7 | 0.00 | 0.00 | 0.00 | 71 | 1006.0 |
| 20260505231918 | 11 | 136 | 6.4 | 9.7 | 0.00 | 0.00 | 0.00 | 67 | 1006.2 |
| 20260505230517 | 12 | 148 | 6.4 | 9.7 | 0.00 | 0.00 | 0.00 | 63 | 1006.1 |
| 20260505230418 | 12 | 149 | 4.8 | 9.7 | 0.00 | 0.00 | 0.00 | 63 | 1006.1 |
| 20260505224918 | 12 | 144 | 6.4 | 9.7 | 0.00 | 0.00 | 0.00 | 62 | 1005.8 |
| 20260505223517 | 12 | 141 | 6.4 | 9.7 | 0.00 | 0.00 | 0.00 | 60 | 1005.9 |
| 20260505223418 | 12 | 147 | 6.4 | 9.7 | 0.00 | 0.00 | 0.00 | 60 | 1005.9 |
| 20260505221918 | 12 | 153 | 6.4 | 9.7 | 0.00 | 0.00 | 0.00 | 58 | 1006.0 |
| 20260505220517 | 12 | 152 | 6.4 | 11.3 | 0.00 | 0.00 | 0.00 | 57 | 1005.9 |
| 20260505220418 | 12 | 151 | 6.4 | 11.3 | 0.00 | 0.00 | 0.00 | 58 | 1005.9 |
| 20260505214918 | 13 | 155 | 6.4 | 9.7 | 0.00 | 0.00 | 0.00 | 59 | 1005.9 |
| 20260505213517 | 13 | 162 | 6.4 | 9.7 | 0.00 | 0.00 | 0.00 | 63 | 1005.9 |
| 20260505213418 | 13 | 159 | 6.4 | 9.7 | 0.00 | 0.00 | 0.00 | 63 | 1005.7 |
| 20260505211918 | 13 | 153 | 6.4 | 9.7 | 0.00 | 0.00 | 0.00 | 61 | 1005.8 |
| 20260505210517 | 13 | 153 | 8.0 | 9.7 | 0.00 | 0.00 | 0.00 | 61 | 1005.6 |
| 20260505210418 | 13 | 153 | 8.0 | 9.7 | 0.00 | 0.00 | 0.00 | 61 | 1005.6 |
| 20260505204918 | 13 | 154 | 6.4 | 8.0 | 0.00 | 0.00 | 0.00 | 63 | 1005.5 |
| 20260505203517 | 13 | 150 | 6.4 | 8.0 | 0.00 | 0.00 | 0.00 | 62 | 1005.4 |
| 20260505203418 | 13 | 151 | 6.4 | 8.0 | 0.00 | 0.00 | 0.00 | 62 | 1005.5 |
| 20260505201918 | 13 | 153 | 6.4 | 8.0 | 0.00 | 0.00 | 0.00 | 61 | 1005.4 |
| 20260505200517 | 13 | 156 | 6.4 | 8.0 | 0.00 | 0.00 | 0.00 | 66 | 1005.5 |
| 20260505200420 | 13 | 157 | 6.4 | 8.0 | 0.00 | 0.00 | 0.00 | 66 | 1005.4 |
| 20260505200418 | 13 | 157 | 6.4 | 8.0 | 0.00 | 0.00 | 0.00 | 66 | 1005.4 |
| 20260505194918 | 13 | 159 | 6.4 | 8.0 | 0.00 | 0.00 | 0.00 | 71 | 1005.2 |
| 20260505193517 | 14 | 156 | 6.4 | 8.0 | 0.00 | 0.00 | 0.00 | 73 | 1005.1 |
| 20260505193420 | 14 | 157 | 6.4 | 8.0 | 0.00 | 0.00 | 0.00 | 73 | 1004.9 |
| 20260505193418 | 14 | 157 | 6.4 | 8.0 | 0.00 | 0.00 | 0.00 | 73 | 1004.9 |
| 20260505191918 | 14 | 158 | 6.4 | 8.0 | 0.00 | 0.00 | 0.00 | 73 | 1005.2 |
| 20260505190517 | 15 | 160 | 6.4 | 9.7 | 0.00 | 0.00 | 0.00 | 72 | 1005.0 |
| 20260505190421 | 15 | 159 | 6.4 | 9.7 | 0.00 | 0.00 | 0.00 | 72 | 1004.9 |
| 20260505190418 | 15 | 159 | 6.4 | 9.7 | 0.00 | 0.00 | 0.00 | 72 | 1004.9 |
| 20260505184918 | 15 | 160 | 6.4 | 9.7 | 0.00 | 0.00 | 0.00 | 67 | 1004.9 |
| 20260505183517 | 15 | 152 | 4.8 | 6.4 | 0.00 | 0.00 | 0.00 | 49 | 1004.8 |
| 20260505183420 | 15 | 153 | 4.8 | 6.4 | 0.00 | 0.00 | 0.00 | 49 | 1004.6 |
| 20260505183418 | 15 | 153 | 4.8 | 6.4 | 0.00 | 0.00 | 0.00 | 49 | 1004.6 |
| 20260505181918 | 15 | 156 | 4.8 | 8.0 | 0.00 | 0.00 | 0.00 | 48 | 1004.6 |
| 20260505180517 | 15 | 156 | 6.4 | 8.0 | 0.00 | 0.00 | 0.00 | 55 | 1004.7 |
| 20260505180421 | 15 | 155 | 6.4 | 8.0 | 0.00 | 0.00 | 0.00 | 55 | 1004.8 |
| 20260505180418 | 15 | 155 | 6.4 | 8.0 | 0.00 | 0.00 | 0.00 | 55 | 1004.8 |
| 20260505174918 | 15 | 157 | 6.4 | 9.7 | 0.00 | 0.00 | 0.00 | 61 | 1004.8 |
| 20260505173517 | 16 | 159 | 6.4 | 8.0 | 0.00 | 0.00 | 0.00 | 62 | 1004.8 |
| 20260505173420 | 16 | 158 | 6.4 | 8.0 | 0.00 | 0.00 | 0.00 | 62 | 1004.9 |
| 20260505173418 | 16 | 158 | 6.4 | 8.0 | 0.00 | 0.00 | 0.00 | 62 | 1004.9 |
| 20260505171918 | 15 | 158 | 6.4 | 8.0 | 0.00 | 0.00 | 0.00 | 58 | 1005.0 |
| 20260505170517 | 15 | 161 | 6.4 | 9.7 | 0.00 | 0.00 | 0.00 | 59 | 1005.0 |
| 20260505170420 | 15 | 161 | 6.4 | 9.7 | 0.00 | 0.00 | 0.00 | 59 | 1005.0 |
| 20260505170418 | 15 | 161 | 6.4 | 9.7 | 0.00 | 0.00 | 0.00 | 59 | 1005.0 |
| 20260505164918 | 16 | 157 | 6.4 | 16.1 | 0.00 | 0.00 | 0.00 | 63 | 1005.1 |
| 20260505163517 | 16 | 157 | 6.4 | 9.7 | 0.00 | 0.00 | 0.00 | 44 | 1004.9 |
| 20260505163418 | 16 | 158 | 6.4 | 9.7 | 0.00 | 0.00 | 0.00 | 45 | 1004.8 |
| 20260505161918 | 16 | 159 | 4.8 | 9.7 | 0.00 | 0.00 | 0.00 | 54 | 1004.8 |
| 20260505160517 | 16 | 161 | 6.4 | 8.0 | 0.00 | 0.00 | 0.00 | 56 | 1004.9 |
| 20260505160420 | 16 | 161 | 6.4 | 8.0 | 0.00 | 0.00 | 0.00 | 55 | 1004.9 |
| 20260505160418 | 16 | 161 | 6.4 | 8.0 | 0.00 | 0.00 | 0.00 | 55 | 1004.9 |
| 20260505151918 | 17 | 158 | 6.4 | 12.9 | 0.00 | 0.00 | 0.00 | 55 | 1004.8 |
| 20260505150517 | 17 | 154 | 4.8 | 9.7 | 0.00 | 0.00 | 0.00 | 42 | 1005.0 |
| 20260505150420 | 17 | 153 | 4.8 | 9.7 | 0.00 | 0.00 | 0.00 | 42 | 1005.0 |
| 20260505150418 | 17 | 153 | 4.8 | 9.7 | 0.00 | 0.00 | 0.00 | 42 | 1005.0 |
| 20260505140518 | 17 | 165 | 6.4 | 9.7 | 0.00 | 0.00 | 0.00 | 40 | 1005.0 |
| 20260505140420 | 17 | 163 | 6.4 | 9.7 | 0.00 | 0.00 | 0.00 | 41 | 1005.1 |
| 20260505140418 | 17 | 163 | 6.4 | 9.7 | 0.00 | 0.00 | 0.00 | 41 | 1005.1 |
| 20260505124918 | 17 | 147 | 4.8 | 9.7 | 0.00 | 0.00 | 0.00 | 48 | 1005.3 |
| 20260505123517 | 17 | 155 | 4.8 | 8.0 | 0.00 | 0.00 | 0.00 | 47 | 1005.3 |
| 20260505123421 | 18 | 153 | 4.8 | 8.0 | 0.00 | 0.00 | 0.00 | 47 | 1005.2 |
| 20260505123418 | 18 | 153 | 4.8 | 8.0 | 0.00 | 0.00 | 0.00 | 47 | 1005.2 |
| 20260505121918 | 17 | 160 | 4.8 | 8.0 | 0.00 | 0.00 | 0.00 | 49 | 1005.4 |
| 20260505120517 | 18 | 169 | 4.8 | 8.0 | 0.00 | 0.00 | 0.00 | 47 | 1005.6 |
| 20260505120420 | 18 | 166 | 4.8 | 8.0 | 0.00 | 0.00 | 0.00 | 47 | 1005.6 |
| 20260505120418 | 18 | 166 | 4.8 | 8.0 | 0.00 | 0.00 | 0.00 | 47 | 1005.6 |
| 20260505114918 | 16 | 152 | 4.8 | 11.3 | 0.00 | 0.00 | 0.00 | 52 | 1005.8 |
| 20260505113517 | 16 | 159 | 4.8 | 9.7 | 0.00 | 0.00 | 0.00 | 54 | 1005.6 |
| 20260505113420 | 16 | 159 | 4.8 | 9.7 | 0.00 | 0.00 | 0.00 | 54 | 1005.6 |
| 20260505113418 | 16 | 159 | 4.8 | 9.7 | 0.00 | 0.00 | 0.00 | 54 | 1005.6 |
| 20260505111918 | 15 | 135 | 4.8 | 8.0 | 0.00 | 0.00 | 0.00 | 58 | 1005.8 |
| 20260505110517 | 15 | 116 | 4.8 | 9.7 | 0.00 | 0.00 | 0.00 | 58 | 1005.9 |
| 20260505110418 | 15 | 113 | 4.8 | 9.7 | 0.00 | 0.00 | 0.00 | 58 | 1006.0 |
| 20260505101918 | 15 | 162 | 4.8 | 8.0 | 0.00 | 0.00 | 0.00 | 61 | 1005.8 |
| 20260505101118 | 15 | 151 | 4.8 | 9.7 | 0.00 | 0.00 | 0.00 | 61 | 1005.6 |
| 20260505100718 | 15 | 147 | 4.8 | 9.7 | 0.00 | 0.00 | 0.00 | 59 | 1005.7 |
| 20260505100518 | 16 | 139 | 4.8 | 9.7 | 0.00 | 0.00 | 0.00 | 58 | 1005.9 |
| 20260505100353 | 16 | 138 | 4.8 | 9.7 | 0.00 | 0.00 | 0.00 | 58 | 1005.7 |
| 20260505100350 | 16 | 138 | 4.8 | 9.7 | 0.00 | 0.00 | 0.00 | 58 | 1005.7 |
| 20260505094851 | 15 | 128 | 4.8 | 9.7 | 0.00 | 0.00 | 0.00 | 59 | 1005.9 |
| 20260505093450 | 15 | 140 | 4.8 | 9.7 | 0.00 | 0.00 | 0.00 | 58 | 1005.9 |
| 20260505093353 | 15 | 138 | 4.8 | 9.7 | 0.00 | 0.00 | 0.00 | 58 | 1005.8 |
| 20260505093351 | 15 | 138 | 4.8 | 9.7 | 0.00 | 0.00 | 0.00 | 58 | 1005.8 |
| 20260505091851 | 15 | 148 | 4.8 | 12.9 | 0.00 | 0.00 | 0.00 | 57 | 1006.0 |
| 20260505090450 | 15 | 130 | 4.8 | 8.0 | 0.00 | 0.00 | 0.00 | 56 | 1006.2 |
| 20260505090351 | 15 | 131 | 4.8 | 9.7 | 0.00 | 0.00 | 0.00 | 57 | 1006.3 |
| 20260505084850 | 15 | 120 | 3.2 | 11.3 | 0.00 | 0.00 | 0.00 | 58 | 1006.1 |
| 20260505083450 | 14 | 126 | 4.8 | 11.3 | 0.00 | 0.00 | 0.00 | 63 | 1006.0 |
| 20260505083350 | 14 | 123 | 4.8 | 11.3 | 0.00 | 0.00 | 0.00 | 62 | 1006.0 |
| 20260505081850 | 13 | 126 | 4.8 | 9.7 | 0.00 | 0.00 | 0.00 | 68 | 1006.1 |
| 20260505080450 | 13 | 110 | 4.8 | 9.7 | 0.00 | 0.00 | 0.00 | 69 | 1006.3 |
| 20260505080350 | 13 | 105 | 4.8 | 9.7 | 0.00 | 0.00 | 0.00 | 68 | 1006.2 |
| 20260505074850 | 14 | 133 | 4.8 | 9.7 | 0.00 | 0.00 | 0.00 | 71 | 1006.0 |
| 20260505073450 | 13 | 142 | 4.8 | 12.9 | 0.00 | 0.00 | 0.00 | 75 | 1006.3 |
| 20260505073350 | 13 | 142 | 4.8 | 12.9 | 0.00 | 0.00 | 0.00 | 74 | 1006.4 |